Flag for Belarus Weather past 2 weeks in Barysaw, Belarus

Now
19 °F

Clear.


Feels Like: 19 °F
Forecast: 24 / 35 °F
Wind: No wind

Location: Minsk

Current Time: Oct 24, 2014 at 9:52:54 PM

Latest Report: Oct 24, 2014 at 9:30 PM


Visibility: 10 mi

Pressure: 30.57 "Hg

Humidity: 86%

Dew point: 16 °F

Location of BarysawLocation

Historic Weather in Barysaw — Graph

°F

Barysaw temperature yesterday

Maximum temperature yesterday: 30 °F (at 2:00 PM)
Minimum temperature yesterday: 21 °F (at 7:30 AM)
Average temperature yesterday: 25 °F

Past Weeks' High & Low Weather Summary

 TemperatureHumidityPressure
High68 °F (Oct 10, 3:00 PM)100% (Oct 11, 7:00 AM)30.60 "Hg (Oct 11, 7:00 AM)
Low12 °F (Oct 24, 7:30 AM)40% (Oct 14, 3:00 PM)29.50 "Hg (Oct 20, 10:00 PM)
Average45 °F83%29.95 "Hg
* Reported Oct 9 8:00 PM — Oct 24 8:30 PM, Barysaw, Weather by CustomWeather, © 2014

Note: Actual official high and low records may vary slightly from our data, if they occured in-between our weather recording intervals... More about our weather records

Advertising

Barysaw weather history for previous 24 hours

 ConditionsComfort  
Time TempWeatherWind HumidityBarometerVisibility
8:30 PM
Oct 24
21 °FClear.No wind86%30.57 "Hg10 mi
8:00 PM23 °FClear.1 mph80%30.57 "Hg10 mi
7:30 PM23 °FClear.3 mph80%30.57 "Hg10 mi
7:00 PM25 °FPassing clouds.3 mph74%30.57 "HgN/A
6:30 PM27 °FSunny.6 mph64%30.57 "Hg10 mi
6:00 PM28 °FSunny.6 mph59%30.57 "Hg10 mi
5:30 PM30 °FSunny.6 mph55%30.57 "Hg10 mi
5:00 PM32 °FSunny.8 mph51%30.57 "Hg10 mi
4:30 PM32 °FSunny.10 mph51%30.57 "Hg10 mi
4:00 PM32 °FPassing clouds.8 mph51%30.57 "HgN/A
3:30 PM32 °FSunny.10 mph51%30.57 "Hg10 mi
3:00 PM32 °FPassing clouds.8 mph51%30.57 "HgN/A
2:30 PM30 °FPassing clouds.8 mph55%30.57 "HgN/A
2:00 PM30 °FSunny.10 mph51%30.57 "Hg10 mi
1:30 PM30 °FSunny.10 mph51%30.60 "Hg10 mi
1:00 PM28 °FPassing clouds.8 mph55%30.60 "HgN/A
12:30 PM28 °FSunny.13 mph55%30.60 "Hg10 mi
12:00 PM27 °FPassing clouds.10 mph54%30.60 "HgN/A
11:30 AM25 °FSunny.10 mph59%30.60 "Hg10 mi
11:00 AM23 °FPassing clouds.8 mph63%30.60 "HgN/A
10:30 AM21 °FPassing clouds.8 mph63%30.60 "HgN/A
10:00 AM19 °FSunny.8 mph68%30.60 "Hg10 mi
9:30 AM18 °FSunny.8 mph73%30.57 "Hg10 mi
9:00 AM16 °FPassing clouds.6 mph79%30.57 "HgN/A
8:30 AM14 °FPassing clouds.6 mph79%30.57 "HgN/A
8:00 AM12 °FPassing clouds.3 mph85%30.57 "HgN/A
7:30 AM12 °FClear.3 mph85%30.54 "Hg10 mi
7:00 AM14 °FPassing clouds.3 mph79%30.54 "HgN/A
6:30 AM14 °FPassing clouds.3 mph79%30.54 "HgN/A
5:30 AM14 °FClear.6 mph79%30.51 "Hg10 mi
5:00 AM16 °FPassing clouds.6 mph73%30.51 "HgN/A
4:30 AM16 °FPassing clouds.3 mph73%30.51 "HgN/A
4:00 AM16 °FPassing clouds.3 mph73%30.54 "HgN/A
3:30 AM16 °FClear.No wind73%30.51 "Hg10 mi
3:00 AM16 °FClear.No wind79%30.51 "Hg10 mi
2:30 AM16 °FPassing clouds.3 mph79%30.51 "HgN/A
2:00 AM18 °FPassing clouds.3 mph73%30.51 "HgN/A
1:30 AM18 °FPassing clouds.3 mph73%30.51 "HgN/A
1:00 AM19 °FClear.6 mph68%30.51 "Hg10 mi
12:30 AM19 °FPassing clouds.3 mph68%30.51 "HgN/A
12:00 AM19 °FPassing clouds.3 mph68%30.48 "HgN/A
11:30 PM
Oct 23
21 °FPassing clouds.3 mph63%30.48 "HgN/A
11:00 PM21 °FPassing clouds.3 mph63%30.48 "HgN/A
10:30 PM21 °FPassing clouds.6 mph63%30.45 "HgN/A
10:00 PM23 °FClear.6 mph58%30.45 "Hg10 mi
9:30 PM23 °FPassing clouds.6 mph58%30.45 "HgN/A
9:00 PM23 °FClear.3 mph58%30.42 "Hg10 mi
Weather by CustomWeather, © 2014

See weather overviewHow to use our weather pages